Retour au catalogue

ONEWEB-0439

ActifCommunicationsPO
NORAD 51635·PAYLOAD·🇬🇧 United Kingdom

Lancé Feb 10, 2022 depuis Guiana Space Centre

Loading…

Prochains Passages (prochaines 24 heures)

TLE

FraisSource: CelesTrak SupGP

Époque: Sep 14, 2026, 14:54 UTC

1 51635C 22012P   26257.62134676 -.00000516  00000+0 -14792-2 0  2579
2 51635  87.8908  18.4622 0001843 104.6798   7.2556 13.10371119    19

Suivez ONEWEB-0439 en temps réel avec AllMySat

Download on the App Store